This is the latest recevied weather packets stored in our database for station/object KB1FFS. If no packets are shown the sender has not sent any weather packets the latest 10 day(s).
| Time | Temp. | Humidity | Pressure | Rain* | Wind** | Luminosity | Snow |
|---|---|---|---|---|---|---|---|
| 1777343932 | 29.44° C | 69% | 1010.7 hPa | 0 mm | - | 0 W/m² | - |
| 1777343630 | 29.44° C | 68% | 1010.4 hPa | 0 mm | - | 0 W/m² | - |
| 1777343326 | 29.44° C | 68% | 1010.4 hPa | 0 mm | - | 0 W/m² | - |
| 1777343025 | 29.44° C | 68% | 1010.3 hPa | 0 mm | - | 0 W/m² | - |
| 1777342721 | 29.44° C | 67% | 1010.2 hPa | 0 mm | - | 0 W/m² | - |
| 1777342418 | 29.44° C | 67% | 1010.3 hPa | 0 mm | - | 0 W/m² | - |
| 1777342115 | 29.44° C | 67% | 1010.1 hPa | 0 mm | - | 0 W/m² | - |
| 1777341811 | 29.44° C | 67% | 1009.8 hPa | 0 mm | - | 0 W/m² | - |
| 1777341507 | 30° C | 67% | 1009.8 hPa | 0 mm | - | 0 W/m² | - |
| 1777341204 | 30° C | 67% | 1009.6 hPa | 0 mm | - | 0 W/m² | - |
| 1777340901 | 30° C | 66% | 1009.4 hPa | 0 mm | - | 0 W/m² | - |
| 1777340599 | 30° C | 66% | 1009.2 hPa | 0 mm | - | 0 W/m² | - |
| 1777340297 | 30° C | 65% | 1009.2 hPa | 0 mm | - | 0 W/m² | - |
| 1777339993 | 30.56° C | 65% | 1009 hPa | 0 mm | - | 0 W/m² | - |
| 1777339691 | 30.56° C | 64% | 1009 hPa | 0 mm | - | 0 W/m² | - |
| 1777339388 | 30° C | 62% | 1009 hPa | 0 mm | - | 0 W/m² | - |
| 1777339086 | 30° C | 47% | 1008.8 hPa | 0 mm | - | 1 W/m² | - |
| 1777338783 | 30.56° C | 48% | 1008.5 hPa | 0 mm | - | 2 W/m² | - |
| 1777338480 | 30.56° C | 48% | 1008.6 hPa | 0 mm | - | 3 W/m² | - |
| 1777338177 | 30.56° C | 45% | 1008.5 hPa | 0 mm | - | 5 W/m² | - |
| 1777337872 | 30.56° C | 41% | 1008.5 hPa | 0 mm | - | 7 W/m² | - |
| 1777337570 | 31.11° C | 42% | 1008.5 hPa | 0 mm | - | 12 W/m² | - |
| 1777337267 | 31.11° C | 41% | 1008.4 hPa | 0 mm | - | 16 W/m² | - |
| 1777336965 | 31.67° C | 41% | 1008.3 hPa | 0 mm | - | 22 W/m² | - |
| 1777336664 | 31.67° C | 39% | 1008.5 hPa | 0 mm | - | 26 W/m² | - |
* Rain latest hour (hover to see other rain measurements)
** Current wind speed in m/s (hover to see current wind gust speed)